Regional Weather Roundup
Issued by NWS

Home | Current Version | Previous Version | Text Only | Print | Product List | Glossary Off
Versions: 1 2 3 4 5 6 7 8 9 10 11 12 13 14 15 16 17 18 19 20 21 22 23 24 25 26 27 28 29 30 31 32 33 34 35 36 37 38 39 40 41 42 43 44 45 46 47 48 49 50

278
ASUS43 KLMK 270910
RWRKY
KENTUCKY REGIONAL WEATHER ROUNDUP
NATIONAL WEATHER SERVICE LOUISVILLE KY
500 AM EDT TUE SEP 27 2016

NOTE "FAIR" INDICATES FEW OR NO CLOUDS BELOW 12,000 FEET
WITH NO SIGNIFICANT WEATHER AND/OR OBSTRUCTIONS TO VISIBILITY.

KYZ001>023-026-027-061>063-070>075-271000-
WESTERN AND SOUTH CENTRAL KENTUCKY

CITY           SKY/WX    TMP DP  RH WIND       PRES   REMARKS
PADUCAH        CLEAR     48  45  89 W3        30.05F
HENDERSON      CLEAR     48  43  81 CALM      30.04F
OWENSBORO      NOT AVBL
HOPKINSVILLE   CLEAR     52  50  93 CALM      30.05F
BOWLING GREEN  FOG       50  49  96 CALM      30.06F VSB 1/4
GLASGOW        FOG      N/A N/A N/A CALM      30.06F VSB 1/2
$$

KYZ024-025-028>034-038-045-046-053-271000-
NORTH CENTRAL KENTUCKY

CITY           SKY/WX    TMP DP  RH WIND       PRES   REMARKS
LOUISVILLE/SDF CLEAR     56  49  77 SW5       30.03F
LOUISVILLE/LOU CLEAR     52  49  89 CALM      30.04F
FORT KNOX      FOG       47  47  99 S2        30.03F VSB 1/2
$$

KYZ035>037-039>044-047>052-055>060-089>105-271000-
NORTHEAST KENTUCKY

CITY           SKY/WX    TMP DP  RH WIND       PRES   REMARKS
LEXINGTON      CLEAR     50  48  93 SW3       30.05F
COVINGTON      CLEAR     52  50  93 SW5       30.02S
FRANKFORT      CLEAR     52  48  86 SW5       30.03F
$$

KYZ054-064>069-076>088-106>120-271000-
SOUTHEAST KENTUCKY

CITY           SKY/WX    TMP DP  RH WIND       PRES   REMARKS
JACKSON        CLEAR     53  51  93 CALM      30.05F
LONDON         MOCLDY    50  47  89 CALM      30.06S
SOMERSET       FOG       50  50 100 CALM      30.08S VSB 1/4
MIDDLESBORO    CLOUDY    61  57  85 NW7       30.06R
MONTICELLO     FOG       49  49 100 W3        30.08F VSB 1/4
$$





USA.gov is the U.S. government's official web portal to all federal, state and local government web resources and services.